Weather in Rakitino

Russia / Novgorod Oblast     58°53′55″N   34°10′11″E
temp.,
°C
wind,
m/s
gust,
m/s
humid.,
%
clouds,
%
prec.,
mm/h
press.,
hPa
HPBL,
m
4 august, wed
wed400:00+13wsw4109148 0.0 1008569
03:00+13w4881100 0.0 1010747
06:00+11w378863 0.0 1012394
09:00+16w36565 0.0 10131210
12:00+19w4544100 0.1 10132249
15:00+17w2553100 0.1 1014873
18:00+17wnw2655100 0.0 1015536
21:00+14wsw1167100 0.0 101616
5 august, thu
thu500:00+13wsw1169100 0.0 101711
03:00+13sw1166100 0.0 101711
06:00+13nnw0069100 0.0 101816
09:00+15ese0159100 0.0 1018240
12:00+21ese1334100 0.0 10172310
15:00+19s2138100 0.0 10171794
18:00+19ene1144100 0.0 1017647
21:00+15ne2457100 0.0 101792
6 august, fri
fri600:00+13nne1166100 0.0 101713
03:00+13ne296795 0.0 1016285
06:00+12e257722 0.1 1017172
09:00+17ene24595 0.1 1016890
12:00+17e456061 0.3 10171127
15:00+19ene584742 0.4 10161492
18:00+16ene5962100 0.0 10171146
21:00+12ene41078100 0.0 1017863
7 august, sat
sat700:00+12ene41080100 0.0 1017795
03:00+12ene41184100 0.0 1017667
06:00+12ene51189100 0.1 1017618
09:00+13ene51286100 0.1 1017652
12:00+14e41190100 0.8 1017782
15:00+13e41295100 1.5 1017735
18:00+14e51294100 0.8 1017812
21:00+14e51497100 6.1 1016759
8 august, sun
sun800:00+14e51398100 2.6 1015826
03:00+14e51398100 7.8 1014740
06:00+13e51499100 8.3 1014650
09:00+13e51298100 12.8 1014667
12:00+13e41198100 0.4 1014578
15:00+14e41098100 0.4 1014495
18:00+14e4999100 0.9 1014445
21:00+14e41099100 2.1 1015413